Location: Brno
(49.2000°N, 16.6330°E)
Time: 23:31:48
(UTC+02:00)

Vanguard 3 - Pass Details

Date: 28 July 2021
Orbit: 510 x 3260 km, 33.3° (Epoch: 22 September)

Event Time Altitude Azimuth Distance (km) Brightness Sun altitude
Rises 02:22:47 0° 276° (W) 7,192 11.8 -19.4°
Reaches altitude 10° 02:29:59 10° 262° (W) 5,958 11.2 -19.0°
Enters shadow 02:40:13 19° 227° (SW) 4,666 10.4 -18.3°
